DLH475 CYUL-EDDM

Flight info

Callsign DLH475
Flight time N/A
Altitude 39000
Route ANTEG DCT OBRON DCT MOBUB DCT EBMOS DCT IMORI DCT KITOP DCT CEFOU DCT 50N060W DCT TUDEP/M084F390 DCT 52N050W 53N040W 5330N03000W 54N020W DCT DOGAL/N0485F390 DCT BEXET/N0488F410 DCT LIFFY UL975 WAL M16 DOLAS DCT NAVPI DCT DODEN/N0494F330 DCT TABUM DCT BOMBI T104 HAREM/N0484F270 T104 ROKIL ROKIL1B
Aircraft A359/H-SDE2E3GHIJ3J4J5LM1ORWXY/LB1D1

Departure

Time 2026-05-07 03:54
Airport Montreal / Pierre Elliott Trudeau International Airport (CYUL)

Arrival

Time N/A
Airport Munich Airport (EDDM)
Time Latitude Longitude Altitude Speed Heading
2026-05-07 03:35 45.45998 -73.75456 110 ft 0 kts 195°
2026-05-07 03:42 45.46003 -73.75454 111 ft 2 kts 193°
2026-05-07 03:42 45.46019 -73.75450 109 ft 2 kts 185°
2026-05-07 03:43 45.46036 -73.75451 111 ft 2 kts 168°
2026-05-07 03:43 45.46052 -73.75459 109 ft 2 kts 137°
2026-05-07 03:43 45.46062 -73.75478 110 ft 2 kts 108°
2026-05-07 03:43 45.46065 -73.75497 109 ft 1 kts 92°
2026-05-07 03:44 45.46065 -73.75501 108 ft 0 kts 90°
2026-05-07 03:46 45.46065 -73.75500 109 ft 1 kts 90°
2026-05-07 03:46 45.46065 -73.75473 109 ft 4 kts 90°
2026-05-07 03:47 45.46067 -73.75421 112 ft 8 kts 77°
2026-05-07 03:47 45.46122 -73.75355 111 ft 11 kts 39°
2026-05-07 03:47 45.46144 -73.75259 114 ft 10 kts 81°
2026-05-07 03:47 45.46146 -73.75143 116 ft 13 kts 88°
2026-05-07 03:48 45.46165 -73.75010 111 ft 13 kts 42°
2026-05-07 03:48 45.46267 -73.74999 112 ft 17 kts 357°
2026-05-07 03:48 45.46393 -73.75007 112 ft 20 kts 357°
2026-05-07 03:48 45.46546 -73.75017 112 ft 22 kts 357°
2026-05-07 03:49 45.46696 -73.75027 112 ft 22 kts 358°
2026-05-07 03:49 45.46850 -73.75036 109 ft 23 kts 357°
2026-05-07 03:49 45.46986 -73.74962 113 ft 21 kts 44°
2026-05-07 03:49 45.47101 -73.74812 114 ft 23 kts 43°
2026-05-07 03:50 45.47218 -73.74659 115 ft 23 kts 42°
2026-05-07 03:50 45.47342 -73.74494 116 ft 25 kts 43°
2026-05-07 03:50 45.47475 -73.74321 114 ft 26 kts 42°
2026-05-07 03:50 45.47607 -73.74149 116 ft 26 kts 42°
2026-05-07 03:51 45.47739 -73.73975 123 ft 25 kts 43°
2026-05-07 03:51 45.47870 -73.73803 122 ft 26 kts 42°
2026-05-07 03:51 45.48008 -73.73623 118 ft 28 kts 43°
2026-05-07 03:51 45.48148 -73.73440 118 ft 24 kts 43°
2026-05-07 03:52 45.48186 -73.73390 117 ft 3 kts 40°
2026-05-07 03:52 45.48242 -73.73385 118 ft 9 kts 334°
2026-05-07 03:52 45.48270 -73.73480 117 ft 14 kts 276°
2026-05-07 03:52 45.48289 -73.73619 116 ft 14 kts 272°
2026-05-07 03:53 45.48242 -73.73709 119 ft 12 kts 221°
2026-05-07 03:53 45.48129 -73.73855 118 ft 47 kts 222°
2026-05-07 03:53 45.47734 -73.74376 117 ft 107 kts 223°
2026-05-07 03:53 45.47057 -73.75260 126 ft 155 kts 223°
2026-05-07 03:54 45.46290 -73.76254 833 ft 142 kts 223°
2026-05-07 03:54 45.45542 -73.77204 1370 ft 152 kts 225°
2026-05-07 03:54 45.44703 -73.78291 1770 ft 166 kts 227°
2026-05-07 03:54 45.43858 -73.79475 2223 ft 179 kts 228°
2026-05-07 03:55 45.42921 -73.80789 2488 ft 203 kts 227°
2026-05-07 03:55 45.41834 -73.82279 2846 ft 225 kts 226°
2026-05-07 03:55 45.40672 -73.83847 3344 ft 237 kts 226°
2026-05-07 03:55 45.39612 -73.85677 3984 ft 241 kts 241°
2026-05-07 03:56 45.39069 -73.87937 4628 ft 246 kts 265°
2026-05-07 03:56 45.39345 -73.90343 5301 ft 252 kts 294°
2026-05-07 03:56 45.40465 -73.92212 6007 ft 260 kts 324°
2026-05-07 03:56 45.42224 -73.92997 6724 ft 271 kts 357°
2026-05-07 03:57 45.44068 -73.92327 7458 ft 280 kts 25°
2026-05-07 03:57 45.45771 -73.91011 8155 ft 285 kts 22°
2026-05-07 03:57 45.47615 -73.89905 8920 ft 288 kts 18°
2026-05-07 03:57 45.49499 -73.88858 9693 ft 293 kts 18°
2026-05-07 03:58 45.51423 -73.87766 10317 ft 302 kts 19°
2026-05-07 03:58 45.53418 -73.86571 10674 ft 321 kts 20°
2026-05-07 03:58 45.55510 -73.85211 11028 ft 339 kts 22°
2026-05-07 03:58 45.57670 -73.83668 11409 ft 356 kts 24°
2026-05-07 03:59 45.59891 -73.81920 11775 ft 372 kts 27°
2026-05-07 03:59 45.62114 -73.79994 12213 ft 385 kts 29°
2026-05-07 03:59 45.64368 -73.77845 12800 ft 393 kts 32°
2026-05-07 03:59 45.66610 -73.75507 13396 ft 401 kts 34°
2026-05-07 04:00 45.68811 -73.72994 13936 ft 409 kts 37°
2026-05-07 04:00 45.70957 -73.70306 14490 ft 415 kts 40°
2026-05-07 04:00 45.73063 -73.67395 15035 ft 422 kts 43°
2026-05-07 04:00 45.75077 -73.64300 15569 ft 428 kts 46°
2026-05-07 04:01 45.76995 -73.60985 16128 ft 434 kts 50°
2026-05-07 04:01 45.78775 -73.57471 16663 ft 440 kts 55°
2026-05-07 04:01 45.80396 -73.53729 17249 ft 445 kts 60°
2026-05-07 04:01 45.81824 -73.49782 17804 ft 450 kts 64°
2026-05-07 04:02 45.83322 -73.45882 18331 ft 454 kts 57°
2026-05-07 04:02 45.85061 -73.42074 18838 ft 459 kts 55°
2026-05-07 04:02 45.86917 -73.38227 19401 ft 462 kts 54°
2026-05-07 04:02 45.88785 -73.34471 19985 ft 465 kts 53°
2026-05-07 04:03 45.90669 -73.30733 20532 ft 469 kts 53°
2026-05-07 04:03 45.92601 -73.26913 21081 ft 473 kts 53°
2026-05-07 04:03 45.94533 -73.23083 21614 ft 477 kts 53°
2026-05-07 04:03 45.96488 -73.19189 22178 ft 480 kts 54°
2026-05-07 04:04 45.98443 -73.15280 22724 ft 484 kts 54°
2026-05-07 04:04 46.00415 -73.11325 23251 ft 488 kts 54°
2026-05-07 04:04 46.02398 -73.07336 23718 ft 492 kts 54°
2026-05-07 04:04 46.04397 -73.03310 24191 ft 495 kts 54°
2026-05-07 04:05 46.06387 -72.99295 24660 ft 498 kts 54°
2026-05-07 04:05 46.08398 -72.95231 25111 ft 501 kts 55°
2026-05-07 04:05 46.10431 -72.91116 25578 ft 504 kts 55°
2026-05-07 04:05 46.12474 -72.86979 26048 ft 506 kts 55°
2026-05-07 04:06 46.14522 -72.82822 26501 ft 509 kts 56°
2026-05-07 04:06 46.16549 -72.78704 26934 ft 512 kts 56°
2026-05-07 04:06 46.18646 -72.74437 27376 ft 516 kts 56°
2026-05-07 04:06 46.20732 -72.70185 27832 ft 519 kts 56°
2026-05-07 04:07 46.22790 -72.65985 28245 ft 521 kts 56°
2026-05-07 04:07 46.24915 -72.61640 28668 ft 525 kts 56°
2026-05-07 04:07 46.27005 -72.57363 29045 ft 528 kts 56°
2026-05-07 04:07 46.29122 -72.53020 29456 ft 530 kts 57°
2026-05-07 04:08 46.31254 -72.48642 29829 ft 533 kts 57°
2026-05-07 04:08 46.33387 -72.44257 30135 ft 536 kts 57°
2026-05-07 04:08 46.35534 -72.39834 30407 ft 539 kts 57°
2026-05-07 04:08 46.37691 -72.35384 30687 ft 542 kts 56°
2026-05-07 04:09 46.39867 -72.30888 30987 ft 544 kts 56°
2026-05-07 04:09 46.42022 -72.26428 31361 ft 543 kts 56°
2026-05-07 04:09 46.44198 -72.21918 31724 ft 544 kts 56°
2026-05-07 04:09 46.46366 -72.17418 32097 ft 544 kts 56°
2026-05-07 04:10 46.48519 -72.12941 32449 ft 543 kts 56°
2026-05-07 04:10 46.50694 -72.08410 32801 ft 544 kts 55°
2026-05-07 04:10 46.52853 -72.03905 33132 ft 544 kts 55°
2026-05-07 04:10 46.55007 -71.99404 33477 ft 544 kts 55°
2026-05-07 04:11 46.57166 -71.94884 33839 ft 543 kts 55°
2026-05-07 04:11 46.59318 -71.90371 34103 ft 544 kts 55°
2026-05-07 04:11 46.61474 -71.85843 34335 ft 545 kts 55°
2026-05-07 04:11 46.63622 -71.81324 34587 ft 544 kts 55°
2026-05-07 04:12 46.65751 -71.76839 34849 ft 544 kts 55°
2026-05-07 04:12 46.67934 -71.72233 35103 ft 545 kts 55°
2026-05-07 04:12 46.70059 -71.67741 35339 ft 545 kts 55°
2026-05-07 04:12 46.72209 -71.63189 35578 ft 545 kts 55°
2026-05-07 04:13 46.74356 -71.58634 35829 ft 545 kts 55°
2026-05-07 04:13 46.76508 -71.54064 36068 ft 545 kts 55°
2026-05-07 04:13 46.78639 -71.49529 36265 ft 545 kts 55°
2026-05-07 04:13 46.80765 -71.44909 36498 ft 546 kts 57°
2026-05-07 04:14 46.82722 -71.40163 36730 ft 546 kts 60°
2026-05-07 04:14 46.84569 -71.35366 36946 ft 546 kts 61°
2026-05-07 04:14 46.86415 -71.30480 37158 ft 546 kts 61°
2026-05-07 04:14 46.88261 -71.25619 37379 ft 545 kts 60°
2026-05-07 04:15 46.90113 -71.20801 37592 ft 545 kts 60°
2026-05-07 04:15 46.91993 -71.15968 37789 ft 545 kts 59°
2026-05-07 04:15 46.93859 -71.11202 37980 ft 545 kts 59°
2026-05-07 04:15 46.95738 -71.06420 38180 ft 545 kts 59°
2026-05-07 04:16 46.97630 -71.01604 38364 ft 545 kts 59°
2026-05-07 04:16 46.99522 -70.96780 38516 ft 545 kts 59°
2026-05-07 04:16 47.01426 -70.91914 38647 ft 545 kts 59°
2026-05-07 04:16 47.03293 -70.87132 38767 ft 545 kts 59°
2026-05-07 04:17 47.05193 -70.82254 38795 ft 548 kts 59°
2026-05-07 04:17 47.08946 -70.72588 38807 ft 549 kts 60°
2026-05-07 04:18 47.12729 -70.62810 38800 ft 548 kts 60°
2026-05-07 04:18 47.16483 -70.53072 38783 ft 547 kts 60°
2026-05-07 04:19 47.20229 -70.43319 38790 ft 547 kts 60°
2026-05-07 04:19 47.23960 -70.33574 38769 ft 547 kts 60°
2026-05-07 04:20 47.27686 -70.23802 38785 ft 547 kts 60°
2026-05-07 04:20 47.31386 -70.14064 38779 ft 547 kts 60°
2026-05-07 04:21 47.36924 -69.99425 38775 ft 547 kts 60°
2026-05-07 04:21 47.40625 -69.89597 38778 ft 547 kts 61°
2026-05-07 04:22 47.44317 -69.79753 38775 ft 547 kts 61°
2026-05-07 04:22 47.47991 -69.69924 38773 ft 546 kts 61°
2026-05-07 04:23 47.51650 -69.60099 38777 ft 546 kts 61°
2026-05-07 04:23 47.55319 -69.50210 38775 ft 546 kts 61°
2026-05-07 04:24 47.58970 -69.40332 38779 ft 546 kts 61°
2026-05-07 04:24 47.62581 -69.30528 38775 ft 546 kts 62°
2026-05-07 04:25 47.66238 -69.20562 38781 ft 546 kts 62°
2026-05-07 04:25 47.69834 -69.10724 38775 ft 545 kts 62°
2026-05-07 04:26 47.73441 -69.00818 38776 ft 545 kts 62°
2026-05-07 04:26 47.76814 -68.90723 38773 ft 545 kts 67°
2026-05-07 04:27 47.79804 -68.80360 38775 ft 545 kts 68°
2026-05-07 04:27 47.82292 -68.71737 38775 ft 545 kts 67°
2026-05-07 04:28 47.85337 -68.61416 38773 ft 545 kts 67°
2026-05-07 04:28 47.88421 -68.51067 38773 ft 545 kts 67°
2026-05-07 04:29 47.91484 -68.40764 38770 ft 544 kts 67°
2026-05-07 04:29 47.94548 -68.30404 38777 ft 544 kts 68°
2026-05-07 04:30 47.97563 -68.20159 38770 ft 542 kts 68°
2026-05-07 04:30 48.00582 -68.09849 38768 ft 541 kts 68°
2026-05-07 04:31 48.03589 -67.99540 38766 ft 541 kts 68°
2026-05-07 04:31 48.06599 -67.89176 38763 ft 541 kts 69°
2026-05-07 04:32 48.09581 -67.78864 38764 ft 541 kts 69°
2026-05-07 04:32 48.12538 -67.68600 38766 ft 541 kts 69°
2026-05-07 04:33 48.15497 -67.58282 38762 ft 541 kts 69°
2026-05-07 04:33 48.18469 -67.47875 38761 ft 541 kts 69°
2026-05-07 04:34 48.21419 -67.37500 38760 ft 541 kts 69°
2026-05-07 04:34 48.24343 -67.27170 38759 ft 541 kts 69°
2026-05-07 04:35 48.27280 -67.16755 38758 ft 541 kts 70°
2026-05-07 04:35 48.30223 -67.06270 38757 ft 542 kts 70°
2026-05-07 04:36 48.33122 -66.95897 38754 ft 542 kts 70°
2026-05-07 04:36 48.36026 -66.85457 38748 ft 542 kts 70°
2026-05-07 04:37 48.38949 -66.74906 38748 ft 543 kts 70°
2026-05-07 04:37 48.41828 -66.64463 38744 ft 543 kts 70°
2026-05-07 04:38 48.44714 -66.53953 38744 ft 544 kts 70°
2026-05-07 04:38 48.47592 -66.43419 38741 ft 544 kts 70°
2026-05-07 04:39 48.50468 -66.32849 38740 ft 544 kts 70°
2026-05-07 04:39 48.53338 -66.22256 38738 ft 545 kts 71°
2026-05-07 04:40 48.56193 -66.11668 38734 ft 545 kts 71°
2026-05-07 04:40 48.59045 -66.01043 38733 ft 545 kts 71°
2026-05-07 04:41 48.61864 -65.90493 38730 ft 545 kts 71°
2026-05-07 04:41 48.64699 -65.79834 38733 ft 545 kts 71°
2026-05-07 04:42 48.67503 -65.69242 38736 ft 545 kts 71°
2026-05-07 04:42 48.70333 -65.58503 38735 ft 546 kts 71°
2026-05-07 04:43 48.73122 -65.47872 38742 ft 546 kts 71°
2026-05-07 04:43 48.75915 -65.37179 38748 ft 546 kts 71°
2026-05-07 04:44 48.78700 -65.26466 38748 ft 546 kts 71°
2026-05-07 04:44 48.81461 -65.15792 38747 ft 546 kts 71°
2026-05-07 04:45 48.84222 -65.05069 38735 ft 546 kts 72°
2026-05-07 04:45 48.86971 -64.94341 38748 ft 546 kts 72°
2026-05-07 04:46 48.89717 -64.83574 38755 ft 546 kts 72°
2026-05-07 04:46 48.92457 -64.72778 38755 ft 546 kts 72°
2026-05-07 04:47 48.95182 -64.61991 38752 ft 546 kts 72°
2026-05-07 04:47 48.97881 -64.51264 38750 ft 546 kts 72°
2026-05-07 04:48 49.00601 -64.40390 38751 ft 546 kts 72°
2026-05-07 04:48 49.03285 -64.29611 38759 ft 546 kts 72°
2026-05-07 04:49 49.05972 -64.18774 38756 ft 546 kts 72°
2026-05-07 04:49 49.08635 -64.07974 38753 ft 546 kts 73°
2026-05-07 04:50 49.11303 -63.97102 38752 ft 546 kts 73°
2026-05-07 04:50 49.13959 -63.86229 38755 ft 546 kts 73°